DW2973 Weather Reports


time (UTC)temp
F
wind
direction
speed
knots
gust
knots
rain 1hr
in
rain 24hr
in
rain mn
in
humidity
%
barometer
mb
20260508093018 63 192 0.0 0.0 0.00 0.00 0.00 48 1022.2
20260508091513 63 184 0.0 0.0 0.00 0.00 0.00 49 1022.2
20260508090012 62 164 0.0 0.0 0.00 0.00 0.00 53 1022.1
20260508084505 60 28 0.0 0.0 0.00 0.00 0.00 57 1022.2
20260508083007 59 120 0.0 0.0 0.00 0.00 0.00 61 1022.1
20260508081502 59 129 0.0 0.0 0.00 0.00 0.00 62 1022.1
20260508080058 58 148 0.0 0.0 0.00 0.00 0.00 63 1022.0
20260508074553 56 138 0.0 0.0 0.00 0.00 0.00 67 1021.8
20260508073107 54 141 0.0 0.0 0.00 0.00 0.00 71 1021.7
20260508071546 53 125 0.0 0.0 0.00 0.00 0.00 73 1021.6
20260508070046 52 115 0.0 0.0 0.00 0.00 0.00 78 1021.6
20260508064538 50 117 0.0 0.0 0.00 0.00 0.00 87 1021.4
20260508063038 50 25 0.0 0.0 0.00 0.00 0.00 92 1021.2
20260508061540 49 25 0.0 0.0 0.00 0.00 0.00 94 1021.0
20260508060029 47 25 0.0 0.0 0.00 0.00 0.00 94 1021.0
20260508054525 44 25 0.0 0.0 0.00 0.00 0.00 94 1021.0
20260508053022 43 25 0.0 0.0 0.00 0.00 0.00 93 1020.9
20260508051521 42 25 0.0 0.0 0.00 0.00 0.00 93 1021.0
20260508050020 42 25 0.0 0.0 0.00 0.00 0.00 93 1020.9
20260508044519 42 25 0.0 0.0 0.00 0.00 0.00 93 1020.8
20260508043019 41 25 0.0 0.0 0.00 0.00 0.00 93 1020.7
20260508041520 41 25 0.0 0.0 0.00 0.00 0.00 92 1020.6
20260508040016 41 25 0.0 0.0 0.00 0.00 0.00 92 1020.5
20260508034517 41 25 0.0 0.0 0.00 0.00 0.00 92 1020.5
20260508033014 41 25 0.0 0.0 0.00 0.00 0.00 92 1020.5
20260508031514 41 25 0.0 0.0 0.00 0.00 0.00 91 1020.4
20260508030013 41 25 0.0 0.0 0.00 0.00 0.00 92 1020.4
20260508024531 41 25 0.0 0.0 0.00 0.00 0.00 91 1020.1
20260508023010 40 25 0.0 0.0 0.00 0.00 0.00 91 1020.0
20260508021510 40 25 0.0 0.0 0.00 0.00 0.00 90 1020.0
20260508020010 41 25 0.0 0.0 0.00 0.00 0.00 90 1020.0
20260508014508 41 25 0.0 0.0 0.00 0.00 0.00 90 1020.0
20260508013007 40 25 0.0 0.0 0.00 0.00 0.00 89 1019.8
20260508010007 40 25 0.0 0.0 0.00 0.00 0.00 87 1019.7
20260508004500 40 25 0.0 0.0 0.00 0.00 0.00 87 1019.6
20260508003058 41 25 0.0 0.0 0.00 0.00 0.00 87 1019.6
20260508001557 42 25 0.0 0.0 0.00 0.00 0.00 87 1019.6
20260508000055 42 25 0.0 0.0 0.00 0.00 0.00 86 1019.6
20260507234557 42 25 0.0 0.0 0.00 0.00 0.00 86 1019.5
20260507233058 43 25 0.0 0.0 0.00 0.00 0.00 86 1019.5
20260507231551 43 25 0.0 0.0 0.00 0.00 0.00 85 1019.4
20260507230105 43 25 0.0 0.0 0.00 0.00 0.00 84 1019.4
20260507224553 43 25 0.0 0.0 0.00 0.00 0.00 84 1019.3
20260507223046 43 25 0.0 0.0 0.00 0.00 0.00 85 1019.2
20260507221547 43 25 0.0 0.0 0.00 0.00 0.00 85 1019.2
20260507220050 43 25 0.0 0.0 0.00 0.00 0.00 85 1019.2
20260507214544 43 25 0.0 0.0 0.00 0.00 0.00 84 1019.2
20260507213044 44 25 0.0 0.0 0.00 0.00 0.00 84 1019.1
20260507211543 44 25 0.0 0.0 0.00 0.00 0.00 84 1019.0
20260507094552 56 325 0.0 0.0 0.00 0.00 0.00 64 1015.8